Cozumel, Mexico

9:27 AM on April 25, 2017 (GMT +0000)
Cozumel International

Weather History for MMCZ - November, 2010

Change the Weather History Date:

Friday, November 26, 2010

  Actual Average Record
Temperature  
Mean Temperature 71 °F -  
Max Temperature 80 °F 82 °F 86 °F (1996)
Min Temperature 62 °F 72 °F 59 °F (2012)
Cooling Degree Days 6    
Growing Degree Days 21 (Base 50)    
Moisture  
Dew Point 67 °F    
Average Humidity 89    
Maximum Humidity 100    
Minimum Humidity 70    
Precipitation  
Precipitation 0.00 in - - ()
Sea Level Pressure  
Sea Level Pressure 29.94 in    
Wind  
Wind Speed 2 mph ()    
Max Wind Speed 8 mph    
Max Gust Speed -    
Visibility 7.5 miles    
Events      
Averages and records for this station are not official NWS values.
T = Trace of Precipitation, MM = Missing Value Source: Averaged Metar Reports

Daily Weather History Graph

Daily Weather History Graph

Search for Another Location

Airport or City:

Trip Planner

Search our weather history database for the weather conditions in past years. The results will help you decide how hot, cold, wet, or windy it might be!

Date:

Astronomy

Nov. 26, 2010 Rise Set
Actual Time 6:04 AM CST 5:05 PM CST
Civil Twilight 5:40 AM CST 5:29 PM CST
Nautical Twilight 5:13 AM CST 5:56 PM CST
Astronomical Twilight 4:46 AM CST 6:23 PM CST
Moon 10:00 PM CST (11/26) 10:20 AM CST (11/26)
Length of Visible Light 11h 49m
Length of Day
11h 01m
Waning Gibbous, 73% of the Moon is Illuminated
Nov 26
Waning Gibbous
Nov 28
Last Quarter
Dec 5
New
Dec 13
First Quarter
Dec 21
Full

Hourly Weather History & Observations

Time (CST) Temp. Heat Index Dew Point Humidity Pressure Visibility Wind Dir Wind Speed Gust Speed Precip Events Conditions
12:49 AM 62.6 °F - 62.6 °F 100% 29.92 in 7.0 mi Calm Calm - N/A   Clear
1:40 AM 62.6 °F - 62.6 °F 100% 29.92 in 7.0 mi Calm Calm - N/A   Clear
2:48 AM 62.6 °F - 62.6 °F 100% 29.93 in 7.0 mi Calm Calm - N/A   Clear
3:48 AM 62.6 °F - 62.6 °F 100% 29.90 in 7.0 mi Calm Calm - N/A   Clear
4:48 AM 62.6 °F - 62.6 °F 100% 29.90 in 7.0 mi Calm Calm - N/A   Clear
5:46 AM 62.6 °F - 62.6 °F 100% 29.90 in 7.0 mi Calm Calm - N/A   Partly Cloudy
6:41 AM 66.2 °F - 66.2 °F 100% 29.94 in 8.0 mi Calm Calm - N/A   Partly Cloudy
7:41 AM 71.6 °F - 68.0 °F 88% 29.95 in 8.0 mi Calm Calm - N/A   Partly Cloudy
8:43 AM 77.0 °F - 71.6 °F 83% 29.99 in 8.0 mi SE 6.9 mph - N/A   Scattered Clouds
9:48 AM 78.8 °F - 69.8 °F 74% 29.97 in 8.0 mi ESE 5.8 mph - N/A   Scattered Clouds
10:40 AM 78.8 °F - 69.8 °F 74% 29.96 in 8.0 mi SE 8.1 mph - N/A   Scattered Clouds
11:43 AM 80.6 °F 83.9 °F 69.8 °F 70% 29.92 in 8.0 mi SE 5.8 mph - N/A   Scattered Clouds
12:40 PM 80.6 °F 83.9 °F 69.8 °F 70% 29.92 in 8.0 mi SE 6.9 mph - N/A   Scattered Clouds
1:44 PM 78.8 °F - 69.8 °F 74% 29.91 in 8.0 mi SE 4.6 mph - N/A   Scattered Clouds
2:52 PM 78.8 °F - 69.8 °F 74% 29.92 in 8.0 mi SE 6.9 mph - N/A   Scattered Clouds
3:46 PM 78.8 °F - 69.8 °F 74% 29.92 in 8.0 mi SE 3.5 mph - N/A   Scattered Clouds
4:48 PM 75.2 °F - 69.8 °F 83% 29.93 in 8.0 mi Calm Calm - N/A   Partly Cloudy
5:44 PM 73.4 °F - 69.8 °F 88% 29.92 in 7.0 mi East 3.5 mph - N/A   Clear
6:41 PM 73.4 °F - 69.8 °F 88% 29.96 in 7.0 mi Calm Calm - N/A   Clear
7:42 PM 69.8 °F - 68.0 °F 94% 29.97 in 7.0 mi Calm Calm - N/A   Clear
8:41 PM 68.0 °F - 68.0 °F 100% 30.01 in 7.0 mi Calm Calm - N/A   Clear
9:46 PM 66.2 °F - 66.2 °F 100% 29.99 in 7.0 mi Calm Calm - N/A   Clear
10:42 PM 66.2 °F - 66.2 °F 100% 29.99 in 7.0 mi Calm Calm - N/A   Clear
11:44 PM 66.2 °F - 66.2 °F 100% 29.94 in 7.0 mi Calm Calm - N/A   Clear